Overview Statistics Trail Chart Weather Telemetry Raw packets
 

This is the latest recevied weather packets stored in our database for station/object KD8DNO-13. If no packets are shown the sender has not sent any weather packets the latest 10 day(s).

<< 15 16 17 18 19 20 21 >>
Time Temp. Humidity Pressure Rain* Wind** Luminosity Snow
1788455583 33.89° C 59% 1018.2 hPa 0 mm - - -
1788455283 33.33° C 57% 1018.2 hPa 0 mm - - -
1788454983 33.33° C 58% 1018.2 hPa 0 mm - - -
1788454683 33.33° C 59% 1018.2 hPa 0 mm - - -
1788454383 32.78° C 60% 1018.2 hPa 0 mm - - -
1788454083 33.33° C 58% 1018.6 hPa 0 mm - - -
1788453783 32.78° C 60% 1018.6 hPa 0 mm - - -
1788453483 32.78° C 61% 1018.6 hPa 0 mm - - -
1788453183 32.78° C 60% 1018.6 hPa 0 mm - - -
1788452883 33.33° C 59% 1018.6 hPa 0 mm - - -
1788452583 33.33° C 61% 1018.6 hPa 0 mm - - -
1788452284 32.78° C 59% 1018.6 hPa 0 mm - - -
1788451984 32.78° C 60% 1018.9 hPa 0 mm - - -
1788451683 33.33° C 61% 1018.9 hPa 0 mm - - -
1788451383 32.78° C 61% 1018.9 hPa 0 mm - - -
1788451083 33.33° C 61% 1018.9 hPa 0 mm - - -
1788450783 33.89° C 60% 1018.9 hPa 0 mm - - -
1788450483 33.89° C 59% 1018.9 hPa 0 mm - - -
1788450183 33.33° C 60% 1018.9 hPa 0 mm - - -
1788449883 33.89° C 61% 1018.9 hPa 0 mm - - -
1788449583 33.89° C 59% 1018.9 hPa 0 mm - - -
1788449283 33.33° C 60% 1018.9 hPa 0 mm - - -
1788448983 32.78° C 62% 1018.9 hPa 0 mm - - -
1788448683 31.67° C 65% 1018.9 hPa 0 mm - - -
1788448383 31.67° C 65% 1018.9 hPa 0 mm - - -

* Rain latest hour (hover to see other rain measurements)
** Current wind speed in m/s (hover to see current wind gust speed)